Home > Time Zones > World Clock > Weather > U.S.A. > Waco > Past weeks

Flag for U.S.A. Weather past 2 weeks in Waco, Texas, U.S.A.

Now
83 °F

Passing clouds.


Feels Like: 84 °F
Forecast: 57 / 85 °F
Wind: 18 mph from Southeast

Location: Waco Regional Airport


UV Index: 7 (High)

Visibility: 10 mi


Pressure: 29.75 "Hg

Humidity: 50%

Dew point: 62 °F

Location of WacoLocation

Historic Weather in Waco

°F

Waco temperature yesterday

Maximum temperature yesterday: 83 °F (at 4:51 PM)
Minimum temperature yesterday: 60 °F (at 4:51 AM)
Average temperature yesterday: 70 °F

Past Weeks' High & Low Weather Summary

 TemperatureHumidityPressure
High86 °F (Apr 23, 3:51 PM)100% (Apr 18, 6:59 AM)30.36 "Hg (Apr 18, 6:59 AM)
Low31 °F (Apr 15, 6:51 AM)21% (Apr 8, 4:51 PM)29.63 "Hg (Apr 13, 4:51 PM)
Average64 °F68%30.02 "Hg
* Reported Apr 8 4:51 PM — Apr 23 4:51 PM, Waco, Weather by CustomWeather, © 2014

Note: Actual official high and low records may vary slightly from our data, if they occured in-between our weather recording intervals... More about our weather records

Advertising

Historic Weather Conditions — Data for Previous 24 hours

 ConditionsComfort  
Time TempWeatherWind HumidityBarometerVisibility
4:51 PM
Apr 23
85 °FSunny.15 mph39%29.76 "Hg10 mi
3:51 PM86 °FSunny.13 mph40%29.78 "Hg10 mi
2:51 PM85 °FPassing clouds.14 mph45%29.81 "Hg10 mi
1:51 PM84 °FSunny.17 mph45%29.84 "Hg10 mi
12:51 PM82 °FSunny.15 mph51%29.87 "Hg10 mi
11:51 AM82 °FSunny.16 mph53%29.89 "Hg10 mi
10:51 AM79 °FSunny.10 mph60%29.91 "Hg10 mi
9:51 AM75 °FSunny.7 mph71%29.92 "Hg10 mi
8:51 AM70 °FSunny.3 mph79%29.91 "Hg10 mi
7:51 AM61 °FSunny.No wind90%29.91 "Hg7 mi
6:51 AM55 °FClear.3 mph96%29.91 "Hg8 mi
5:51 AM56 °FClear.No wind93%29.91 "Hg9 mi
4:51 AM55 °FClear.No wind96%29.90 "Hg10 mi
3:51 AM54 °FClear.No wind100%29.91 "Hg8 mi
2:51 AM60 °FClear.No wind86%29.91 "Hg10 mi
1:51 AM61 °FClear.3 mph83%29.92 "Hg10 mi
12:51 AM57 °FClear.No wind93%29.93 "Hg10 mi
11:51 PM
Apr 22
65 °FClear.5 mph76%29.93 "Hg10 mi
10:51 PM66 °FClear.5 mph73%29.94 "Hg10 mi
9:51 PM68 °FClear.5 mph68%29.93 "Hg10 mi
8:51 PM71 °FSunny.6 mph61%29.92 "Hg10 mi
7:51 PM75 °FSunny.6 mph54%29.91 "Hg10 mi
6:51 PM81 °FSunny.3 mph42%29.91 "Hg10 mi
Weather by CustomWeather, © 2014

See weather overview